[[{"header":{"parameterUnit":"m.s-1","parameterCategory":1,"la1":30.2992,"la2":30.254,"lo1":-89.0895,"lo2":-89.0443,"dy":0.0025,"dx":0.0025,"nx":19,"ny":19,"refTime":"2026-04-02T03:00:00:Z","depth":0,"parameterNumber":2,"parameterNumberName":"U-component_of_WINDS"},"data":[0,0,0,-5.3207,-5.321,-5.3372,-5.3372,-5.3582,-5.3584,0,0,0,0,0,0,0,0,0,0,0,-5.3162,-5.3164,-5.3207,-5.3211,-5.3372,-5.3373,-5.3581,-5.3584,0,0,0,0,0,0,0,0,0,0,0,-5.3161,-5.3163,-5.3165,-5.3211,-5.3372,-5.3373,-5.3581,-5.3458,0,0,0,0,0,0,0,0,0,0,-5.3301,-5.3262,-5.3163,-5.3165,-5.3212,-5.3372,-5.3373,-5.3452,-5.3466,-5.351,0,-5.3552,0,-5.3571,-5.3598,-5.3599,0,0,0,-5.3208,-5.3251,-5.3292,-5.3165,-5.3214,-5.3371,-5.3298,-5.3459,-5.3475,-5.3529,-5.3555,-5.3563,-5.3575,-5.3599,-5.36,-5.3871,-5.3872,0,0,-5.3199,-5.3192,-5.3281,-5.3302,-5.3279,-5.3293,-5.3303,-5.3469,-5.3497,-5.3556,-5.3568,-5.3578,-5.3601,-5.3602,-5.387,-5.3871,0,0,0,-5.3175,-5.3186,-5.3223,-5.3294,-5.3323,-5.3298,-5.331,-5.3489,-5.3502,-5.357,-5.3581,-5.3602,-5.3605,-5.3868,-5.387,-5.3931,0,0,0,-5.317,-5.3172,-5.3219,-5.3217,-5.332,-5.3408,-5.3326,-5.3491,-5.3509,-5.358,-5.3602,-5.3607,-5.3867,-5.3869,-5.3926,-5.3959,0,0,0,-5.315,-5.317,-5.3194,-5.3216,-5.3285,-5.3406,-5.3428,-5.3495,-5.3516,-5.3599,-5.3607,-5.3866,-5.3869,-5.3922,-5.3952,-5.4027,0,0,0,-5.3127,-5.3246,-5.3195,-5.3332,-5.3284,-5.3444,-5.3427,-5.3546,-5.3624,-5.3603,-5.3867,-5.387,-5.392,-5.3948,-5.4022,-5.4086,-5.4113,0,0,-5.3272,-5.3263,-5.3344,-5.3304,-5.347,-5.3419,-5.3595,-5.3673,-5.3687,-5.3808,-5.3815,-5.3928,-5.3952,-5.4026,-5.4273,-5.4294,0,0,0,-5.3388,-5.3445,-5.3491,-5.3566,-5.363,-5.3687,-5.3739,-5.3768,-5.3873,-5.3748,-5.3977,-5.3991,-5.4035,-5.4066,-5.4084,-5.4121,-5.3885,-5.3885,-5.3884,-5.358,-5.3594,-5.3728,-5.3761,-5.3835,-5.3889,-5.3949,-5.3997,-5.3988,-5.4042,-5.4076,-5.4225,-5.4261,-5.4275,-5.4313,-5.4115,-5.4115,-5.4115,-5.4115,-5.3792,-5.3874,-5.3863,-5.3989,-5.4002,-5.4108,-5.4165,-5.4156,-5.4255,-5.42,-5.4239,-5.4173,-5.4298,-5.4332,-5.412,-5.4119,-5.4119,-5.4118,-5.4118,-5.3916,-5.3958,-5.3993,-5.4104,-5.4188,-5.4218,-5.4315,-5.4324,-5.4333,-5.4373,-5.4409,-5.4408,-5.4405,-5.439,-5.4391,-5.4391,-5.4392,-5.4392,-5.4393,-5.4029,-5.4067,-5.4148,-5.4228,-5.4277,-5.4344,-5.4402,-5.4451,-5.4507,-5.4506,-5.4507,-5.4491,-5.4309,-5.4261,-5.44,-5.4399,-5.4398,-5.4397,-5.4397,-5.4232,-5.4188,-5.4312,-5.4363,-5.4457,-5.4539,-5.4552,-5.4652,-5.4694,-5.4741,-5.4719,-5.4585,-5.4574,-5.456,-5.452,-5.4718,-5.4718,-5.4718,-5.4718,-5.4334,-5.4331,-5.4461,-5.454,-5.462,-5.4645,-5.4784,-5.4831,-5.4872,-5.4899,-5.4873,-5.4822,-5.4807,-5.4806,-5.4786,-5.4748,-5.5,-5.5,-5.5001,-5.4458,-5.4464,-5.458,-5.4621,-5.4697,-5.4761,-5.4892,-5.4983,-5.5021,-5.5012,-5.4919,-5.4907,-5.4826,-5.4799,-5.4782,-5.4752,-5.4683,0,0]},{"header":{"parameterUnit":"m.s-1","parameterCategory":1,"la1":30.2992,"la2":30.254,"lo1":-89.0895,"lo2":-89.0443,"dy":0.0025,"dx":0.0025,"nx":19,"ny":19,"refTime":"2026-04-02T03:00:00:Z","depth":0,"parameterNumber":3,"parameterNumberName":"V-component_of_WINDS"},"data":[0,0,0,3.2818,3.2821,3.2934,3.2934,3.3073,3.3074,0,0,0,0,0,0,0,0,0,0,0,3.2782,3.2783,3.2818,3.2821,3.2934,3.2934,3.3073,3.3074,0,0,0,0,0,0,0,0,0,0,0,3.2781,3.2782,3.2783,3.2821,3.2934,3.2934,3.3072,3.2989,0,0,0,0,0,0,0,0,0,0,3.288,3.2843,3.2782,3.2783,3.2822,3.2934,3.2935,3.2985,3.2994,3.3019,0,3.3041,0,3.306,3.3083,3.3084,0,0,0,3.2823,3.2836,3.2869,3.2784,3.2823,3.2934,3.2884,3.299,3.3001,3.3031,3.3043,3.3049,3.3062,3.3084,3.3085,3.3227,3.3227,0,0,3.2817,3.28,3.2862,3.2876,3.2859,3.288,3.2887,3.2997,3.3008,3.3044,3.3052,3.3065,3.3085,3.3086,3.3226,3.3227,0,0,0,3.2797,3.2795,3.2827,3.287,3.2891,3.2883,3.2891,3.3003,3.3015,3.3054,3.3066,3.3086,3.3087,3.3226,3.3227,3.324,0,0,0,3.2794,3.2784,3.2824,3.2814,3.2889,3.2949,3.2895,3.3007,3.302,3.3066,3.3086,3.3089,3.3225,3.3226,3.3238,3.3249,0,0,0,3.2775,3.2782,3.2798,3.2813,3.2862,3.2947,3.2965,3.301,3.3028,3.3084,3.3089,3.3225,3.3226,3.3237,3.3246,3.3283,0,0,0,3.275,3.2805,3.2797,3.2864,3.2861,3.2955,3.2965,3.3035,3.3085,3.3086,3.3225,3.3226,3.3236,3.3245,3.3281,3.3311,3.3322,0,0,3.281,3.2812,3.2853,3.2849,3.2941,3.2939,3.3033,3.3093,3.3112,3.3187,3.3191,3.3239,3.3246,3.3282,3.3387,3.3395,0,0,0,3.2866,3.2895,3.2923,3.2971,3.302,3.3063,3.3111,3.3134,3.3199,3.3148,3.3262,3.3267,3.3289,3.3304,3.3311,3.3332,3.3233,3.3232,3.3232,3.2925,3.2951,3.3021,3.306,3.3106,3.3157,3.3197,3.3237,3.3245,3.3272,3.3295,3.3355,3.3372,3.3378,3.3399,3.3312,3.3312,3.3312,3.3312,3.3017,3.3063,3.3078,3.3151,3.3177,3.3239,3.3291,3.3296,3.3358,3.3339,3.336,3.3338,3.3386,3.3406,3.3313,3.3313,3.3313,3.3313,3.3313,3.3059,3.3085,3.3114,3.3188,3.3242,3.328,3.334,3.3361,3.3381,3.3401,3.3429,3.3428,3.3432,3.3413,3.3413,3.3413,3.3414,3.3414,3.3414,3.3091,3.3123,3.3171,3.3231,3.3266,3.3315,3.337,3.3405,3.3449,3.346,3.346,3.3468,3.3386,3.3366,3.3417,3.3417,3.3416,3.3416,3.3416,3.3174,3.316,3.3234,3.327,3.3344,3.3397,3.3425,3.3495,3.3527,3.3556,3.3561,3.3497,3.35,3.3494,3.3477,3.3555,3.3555,3.3555,3.3555,3.321,3.3215,3.3298,3.3354,3.3411,3.3445,3.353,3.3574,3.3616,3.3638,3.363,3.361,3.3603,3.3609,3.3601,3.3586,3.3689,3.3689,3.369,3.3264,3.3276,3.3343,3.3387,3.3447,3.3498,3.3579,3.3643,3.3688,3.3696,3.3656,3.365,3.3618,3.3605,3.361,3.3597,3.357,0,0]}]]